Torna al catalogo

STARLINK-34460

AttivoComunicazioniVLEO
NORAD 66099·PAYLOAD·🇺🇸 United States

Lanciato Oct 19, 2025 da Vandenberg Space Force Base

Loading…

Prossimi Passaggi (prossime 24 ore)

TLE

AggiornatoSource: CelesTrak SupGP

Epoca: Sep 14, 2026, 21:24 UTC

1 66099C 25236P   26257.89215278  .00011721  00000+0  34643-3 0  2573
2 66099  53.1592 303.8966 0001235  86.4545  89.9517 15.34373185    15

Traccia STARLINK-34460 in tempo reale con AllMySat

Download on the App Store